This demonstration page uses our WeatherBlox Daily Observations layout. Learn more.

Left ArrowRight Arrow

Hourly Observations for April 21, 2018

Temp ( °F °C ) Dew Point ( °F °C ) Humidity (%) Winds ( mph kmh ) Pressure ( in mb ) Visibility ( mi km ) Precip ( " mm )
12:56 am 00:56 Cloudy with Light Rain 42 5.6 39 3.9 89 89 E 14 22 30.32 1027 8 13 0.06 1.52
1:14 am 01:14 Cloudy with Light Rain 43 6 39 4 87 87 E 15 24 30.33 1027 10 16 0.01 0.25
1:48 am 01:48 Cloudy with Light Rain 41 5 39 4 93 93 E 10 17 30.33 1027 8 13 0.04 1.02
1:56 am 01:56 Cloudy with Light Rain 41 5 39 3.9 93 93 E 13 20 30.30 1026 9 14 0.04 1.02
2:56 am 02:56 Cloudy with Light Rain 41 5 39 3.9 93 93 E 10 17 30.29 1026 8 13 0.02 0.51
3:05 am 03:05 Cloudy with Light Rain 41 5 39 4 93 93 E 9 15 30.33 1027 10 16 0.00 0.03
3:23 am 03:23 Cloudy with Light Rain 41 5 39 4 93 93 E 8 13 30.33 1027 10 16 0.00 0.00
3:56 am 03:56 Cloudy with Light Rain 41 5 39 3.9 93 93 E 9 15 30.28 1025 10 16 0.00 0.03
4:39 am 04:39 Cloudy 41 5 39 4 93 93 E 9 15 30.30 1026 10 16 0.00 0.03
4:56 am 04:56 Cloudy 40 4.4 39 3.9 97 97 E 8 13 30.26 1025 10 16 0.00 0.03
5:56 am 05:56 Cloudy 40 4.4 39 3.9 97 97 NE 7 11 30.25 1024 10 16 0.00 0.00
6:56 am 06:56 Cloudy 40 4.4 38 3.3 93 93 NE 8 13 30.24 1024 10 16 0.00 0.00
7:56 am 07:56 Cloudy 40 4.4 38 3.3 93 93 NE 10 17 30.26 1025 10 16 0.00 0.00
8:56 am 08:56 Cloudy with Light Rain 41 5 38 3.3 89 89 ENE 8 13 30.27 1025 10 16 0.00 0.03
10:34 am 10:34 Cloudy with Light Rain 43 6 37 3 81 81 ENE 9 15 30.33 1027 10 16 0.00 0.03
10:56 am 10:56 Cloudy with Light Rain 42 5.6 39 3.9 89 89 E 14 22 30.29 1026 9 14 0.00 0.03
11:04 am 11:04 Cloudy with Light Rain 43 6 37 3 81 81 E 15 24 30.33 1027 10 16 0.00 0.03
11:56 am 11:56 Cloudy with Light Rain 43 6.1 37 2.8 80 80 E 7 11 30.28 1025 10 16 0.00 0.03
12:56 pm 12:56 Cloudy with Light Rain 43 6.1 38 3.3 82 82 ENE 7 11 30.27 1025 10 16 0.00 0.03
1:27 pm 13:27 Cloudy with Light Rain 43 6 37 3 81 81 ENE 8 13 30.30 1026 10 16 0.00 0.00
1:56 pm 13:56 Cloudy with Light Rain 43 6.1 38 3.3 82 82 NE 9 15 30.26 1025 10 16 0.00 0.03
3:03 pm 15:03 Cloudy with Light Rain 43 6 39 4 87 87 NE 12 19 30.30 1026 10 16 0.00 0.00
3:49 pm 15:49 Cloudy with Light Rain 43 6 39 4 87 87 NE 9 15 30.27 1025 10 16 0.00 0.03
3:56 pm 15:56 Cloudy with Light Rain 43 6.1 41 5 93 93 ENE 10 17 30.25 1024 10 16 0.01 0.25
4:09 pm 16:09 Cloudy with Light Rain 43 6 39 4 87 87 ENE 7 11 30.30 1026 10 16 0.00 0.00
4:56 pm 16:56 Cloudy with Light Rain 43 6.1 41 5 93 93 E 13 20 30.24 1024 10 16 0.00 0.03
5:15 pm 17:15 Cloudy with Light Rain 43 6 41 5 93 93 E 10 17 30.27 1025 10 16 0.00 0.03
5:33 pm 17:33 Cloudy 45 7 39 4 81 81 E 12 19 30.24 1024 10 16 0.00 0.00
5:40 pm 17:40 Cloudy 45 7 39 4 81 81 E 9 15 30.24 1024 10 16 0.00 0.03
5:56 pm 17:56 Cloudy 44 6.7 39 3.9 83 83 E 13 20 30.26 1025 10 16 0.00 0.03
6:56 pm 18:56 Cloudy 43 6.1 40 4.4 89 89 ENE 9 15 30.26 1025 10 16 0.00 0.00
7:56 pm 19:56 Cloudy 43 6.1 39 3.9 86 86 NE 6 9 30.27 1025 10 16 0.00 0.00
8:56 pm 20:56 Cloudy 42 5.6 40 4.4 92 92 N 7 11 30.27 1025 10 16 0.00 0.00
9:56 pm 21:56 Cloudy 42 5.6 39 3.9 89 89 N 6 9 30.28 1026 10 16 0.00 0.00
10:56 pm 22:56 Cloudy 42 5.6 39 3.9 89 89 N 7 11 30.30 1026 10 16 0.00 0.00
11:46 pm 23:46 Cloudy with Light Rain 41 5 39 4 93 93 ENE 10 17 30.33 1027 5 8 0.00 0.03
11:56 pm 23:56 Cloudy with Light Rain 40 4.4 39 3.9 97 97 E 10 17 30.29 1026 6 10 0.00 0.03

Powered by AerisWeather